Previsão horária em Jubail

Hoje, 19 Junho, Sábado

Tempo Temperatura Precipitação Vento Pressão Humidade
00:00 +36°C° 0 mm 7 m/s 750 mmHg 15%
01:00 +35°C° 0 mm 7 m/s 750 mmHg 15%
02:00 +35°C° 0 mm 7 m/s 750 mmHg 15%
03:00 +34°C° 0 mm 7 m/s 750 mmHg 16%
04:00 +34°C° 0 mm 7 m/s 750 mmHg 15%
05:00 +34°C° 0 mm 7 m/s 750 mmHg 15%
06:00 +34°C° 0 mm 8 m/s 751 mmHg 15%
07:00 +37°C° 0 mm 8 m/s 751 mmHg 14%
08:00 +39°C° 0 mm 8 m/s 751 mmHg 13%
09:00 +43°C° 0 mm 8 m/s 751 mmHg 12%
10:00 +43°C° 0 mm 8 m/s 751 mmHg 12%
11:00 +44°C° 0 mm 8 m/s 751 mmHg 12%
12:00 +45°C° 0 mm 8 m/s 751 mmHg 12%
13:00 +45°C° 0 mm 7 m/s 751 mmHg 13%
14:00 +44°C° 0 mm 7 m/s 750 mmHg 14%
15:00 +44°C° 0 mm 6 m/s 750 mmHg 15%
16:00 +42°C° 0 mm 5 m/s 750 mmHg 18%
17:00 +40°C° 0 mm 4 m/s 750 mmHg 22%
18:00 +38°C° 0 mm 3 m/s 750 mmHg 25%
19:00 +37°C° 0 mm 3 m/s 750 mmHg 24%
20:00 +37°C° 0 mm 3 m/s 750 mmHg 23%
21:00 +37°C° 0 mm 3 m/s 750 mmHg 22%
22:00 +36°C° 0 mm 4 m/s 750 mmHg 21%
23:00 +36°C° 0 mm 4 m/s 750 mmHg 21%

Amanhã, 20 Junho, Domingo

Tempo Temperatura Precipitação Vento Pressão Humidade
00:00 +36°C° 0 mm 5 m/s 750 mmHg 20%
01:00 +36°C° 0 mm 5 m/s 750 mmHg 20%
02:00 +35°C° 0 mm 5 m/s 750 mmHg 21%
03:00 +34°C° 0 mm 5 m/s 750 mmHg 21%
04:00 +34°C° 0 mm 5 m/s 750 mmHg 28%
05:00 +34°C° 0 mm 6 m/s 751 mmHg 35%
06:00 +34°C° 0 mm 6 m/s 751 mmHg 42%
07:00 +38°C° 0 mm 6 m/s 751 mmHg 34%
08:00 +40°C° 0 mm 7 m/s 752 mmHg 27%
09:00 +43°C° 0 mm 7 m/s 752 mmHg 19%
10:00 +44°C° 0 mm 7 m/s 752 mmHg 18%
11:00 +44°C° 0 mm 7 m/s 752 mmHg 16%
12:00 +45°C° 0 mm 7 m/s 752 mmHg 15%
13:00 +45°C° 0 mm 7 m/s 751 mmHg 15%
14:00 +45°C° 0 mm 6 m/s 751 mmHg 15%
15:00 +44°C° 0 mm 6 m/s 751 mmHg 16%
16:00 +42°C° 0 mm 5 m/s 750 mmHg 17%
17:00 +41°C° 0 mm 5 m/s 750 mmHg 19%
18:00 +40°C° 0 mm 4 m/s 750 mmHg 21%
19:00 +38°C° 0 mm 4 m/s 750 mmHg 20%
20:00 +38°C° 0 mm 4 m/s 750 mmHg 19%
21:00 +37°C° 0 mm 4 m/s 750 mmHg 17%
22:00 +37°C° 0 mm 4 m/s 750 mmHg 17%
23:00 +36°C° 0 mm 3 m/s 750 mmHg 17%

Depois de amanhã, 21 Junho, Segunda-feira

Tempo Temperatura Precipitação Vento Pressão Humidade
00:00 +36°C° 0 mm 3 m/s 750 mmHg 17%
01:00 +35°C° 0 mm 3 m/s 750 mmHg 17%
02:00 +35°C° 0 mm 3 m/s 750 mmHg 16%
03:00 +34°C° 0 mm 3 m/s 750 mmHg 15%
04:00 +34°C° 0 mm 4 m/s 750 mmHg 16%
05:00 +34°C° 0 mm 5 m/s 751 mmHg 16%
06:00 +35°C° 0 mm 5 m/s 751 mmHg 17%
07:00 +38°C° 0 mm 6 m/s 751 mmHg 18%
08:00 +40°C° 0 mm 6 m/s 751 mmHg 19%
09:00 +43°C° 0 mm 7 m/s 751 mmHg 20%
10:00 +44°C° 0 mm 7 m/s 751 mmHg 18%
11:00 +45°C° 0 mm 7 m/s 751 mmHg 16%
12:00 +46°C° 0 mm 6 m/s 751 mmHg 14%
13:00 +46°C° 0 mm 6 m/s 751 mmHg 14%
14:00 +46°C° 0 mm 6 m/s 750 mmHg 14%
15:00 +46°C° 0 mm 6 m/s 750 mmHg 14%
16:00 +43°C° 0 mm 5 m/s 750 mmHg 16%
17:00 +42°C° 0 mm 4 m/s 750 mmHg 18%
18:00 +39°C° 0 mm 3 m/s 750 mmHg 21%
19:00 +39°C° 0 mm 3 m/s 750 mmHg 19%
20:00 +38°C° 0 mm 2 m/s 750 mmHg 17%
21:00 +37°C° 0 mm 2 m/s 750 mmHg 14%
22:00 +37°C° 0 mm 2 m/s 750 mmHg 15%
23:00 +36°C° 0 mm 2 m/s 750 mmHg 15%

22 Junho, Terça-feira

Tempo Temperatura Precipitação Vento Pressão Humidade
00:00 +36°C° 0 mm 2 m/s 750 mmHg 15%
01:00 +36°C° 0 mm 2 m/s 750 mmHg 13%
02:00 +36°C° 0 mm 2 m/s 750 mmHg 11%
03:00 +36°C° 0 mm 3 m/s 750 mmHg 10%
04:00 +36°C° 0 mm 3 m/s 750 mmHg 10%
05:00 +36°C° 0 mm 4 m/s 750 mmHg 11%
06:00 +36°C° 0 mm 4 m/s 750 mmHg 11%
07:00 +38°C° 0 mm 4 m/s 750 mmHg 14%
08:00 +41°C° 0 mm 5 m/s 751 mmHg 18%
09:00 +43°C° 0 mm 5 m/s 751 mmHg 21%
10:00 +45°C° 0 mm 5 m/s 751 mmHg 19%
11:00 +46°C° 0 mm 5 m/s 751 mmHg 17%
12:00 +47°C° 0 mm 4 m/s 751 mmHg 15%
13:00 +47°C° 0 mm 4 m/s 750 mmHg 14%
14:00 +47°C° 0 mm 4 m/s 750 mmHg 12%
15:00 +47°C° 0 mm 4 m/s 750 mmHg 10%
16:00 +45°C° 0 mm 3 m/s 750 mmHg 12%
17:00 +44°C° 0 mm 3 m/s 750 mmHg 13%
18:00 +41°C° 0 mm 2 m/s 750 mmHg 15%
19:00 +40°C° 0 mm 2 m/s 750 mmHg 14%
20:00 +40°C° 0 mm 3 m/s 750 mmHg 13%
21:00 +39°C° 0 mm 3 m/s 750 mmHg 12%
22:00 +37°C° 0 mm 3 m/s 750 mmHg 24%
23:00 +35°C° 0 mm 4 m/s 750 mmHg 35%

23 Junho, Quarta-feira

Tempo Temperatura Precipitação Vento Pressão Humidade
00:00 +33°C° 0 mm 5 m/s 751 mmHg 47%
01:00 +33°C° 0 mm 3 m/s 751 mmHg 47%
02:00 +31°C° 0 mm 2 m/s 751 mmHg 47%
03:00 +31°C° 0 mm 1 m/s 751 mmHg 47%
04:00 +32°C° 0 mm 2 m/s 751 mmHg 43%
05:00 +32°C° 0 mm 2 m/s 751 mmHg 40%
06:00 +34°C° 0 mm 3 m/s 752 mmHg 36%
07:00 +37°C° 0 mm 3 m/s 752 mmHg 29%
08:00 +40°C° 0 mm 3 m/s 752 mmHg 22%
09:00 +44°C° 0 mm 3 m/s 752 mmHg 15%
10:00 +45°C° 0 mm 4 m/s 752 mmHg 13%
11:00 +48°C° 0 mm 4 m/s 752 mmHg 11%
12:00 +50°C° 0 mm 5 m/s 752 mmHg 9%
13:00 +49°C° 0 mm 6 m/s 751 mmHg 9%
14:00 +49°C° 0 mm 6 m/s 751 mmHg 10%
15:00 +49°C° 0 mm 7 m/s 750 mmHg 10%
16:00 +46°C° 0 mm 6 m/s 750 mmHg 14%
17:00 +43°C° 0 mm 5 m/s 750 mmHg 17%
18:00 +41°C° 0 mm 5 m/s 750 mmHg 21%
19:00 +40°C° 0 mm 4 m/s 751 mmHg 22%
20:00 +38°C° 0 mm 4 m/s 751 mmHg 23%
21:00 +37°C° 0 mm 4 m/s 751 mmHg 24%
22:00 +36°C° 0 mm 4 m/s 751 mmHg 36%
23:00 +34°C° 0 mm 5 m/s 751 mmHg 49%

24 Junho, Quinta-feira

Tempo Temperatura Precipitação Vento Pressão Humidade
00:00 +33°C° 0 mm 5 m/s 751 mmHg 62%
01:00 +33°C° 0 mm 4 m/s 751 mmHg 60%
02:00 +31°C° 0 mm 3 m/s 751 mmHg 58%
03:00 +31°C° 0 mm 2 m/s 751 mmHg 55%
04:00 +32°C° 0 mm 2 m/s 751 mmHg 52%
05:00 +32°C° 0 mm 1 m/s 752 mmHg 48%
06:00 +30°C° 0 mm 0 m/s 752 mmHg 44%
07:00 +35°C° 0 mm 1 m/s 752 mmHg 35%
08:00 +39°C° 0 mm 1 m/s 752 mmHg 27%
09:00 +42°C° 0 mm 2 m/s 753 mmHg 18%
10:00 +43°C° 0 mm 2 m/s 752 mmHg 16%
11:00 +46°C° 0 mm 2 m/s 752 mmHg 13%
12:00 +48°C° 0 mm 3 m/s 752 mmHg 10%
13:00 +48°C° 0 mm 3 m/s 751 mmHg 10%
14:00 +49°C° 0 mm 4 m/s 751 mmHg 10%
15:00 +49°C° 0 mm 5 m/s 751 mmHg 10%
16:00 +47°C° 0 mm 4 m/s 750 mmHg 14%
17:00 +44°C° 0 mm 4 m/s 750 mmHg 17%
18:00 +42°C° 0 mm 3 m/s 750 mmHg 20%
19:00 +40°C° 0 mm 3 m/s 750 mmHg 20%
20:00 +39°C° 0 mm 3 m/s 750 mmHg 20%
21:00 +38°C° 0 mm 3 m/s 751 mmHg 21%
22:00 +37°C° 0 mm 3 m/s 750 mmHg 21%
23:00 +37°C° 0 mm 3 m/s 750 mmHg 21%
Mostrar mais

Necessitamos do seu Consentimento

A Meteoprog e os seus Fornecedores de Serviços podem armazenar e aceder a dados pessoais como cookies, identificadores do dispositivo ou outras tecnologias semelhantes existentes no seu dispositivo e processar estes dados para personalizar conteúdos e anúncios, assim como funcionalidades nas redes sociais e análise de tráfego.

  • Armazenar e/ou aceder a informações no seu dispositivo

    Os cookies, identificadores do dispositivo ou outras informações podem ser armazenados ou acedidos no seu dispositivo, para os fins acima indicados.

  • Anúncios e conteúdos personalizados, medição de anúncios e conteúdos, dados sobre o público-alvo e desenvolvimento de produtos

    Os anúncios e os conteúdos podem ser personalizados com base num perfil. Podem ser adicionados dados adicionais para uma maior personalização dos anúncios e dos conteúdos. A eficácia dos anúncios e dos conteúdos pode ser medida. Podem ser obtidas informações sobre o público que visualizou os anúncios e os conteúdos. Estes dados podem ser usados para desenvolver ou melhorar sistemas, softwares ou a experiência do utilizador.

Ao clicar em "Eu concordo”, permitirá o uso de cookies, identificadores do dispositivo e web beacons mencionados ou outras tecnologias semelhantes. As configurações do navegador do seu dispositivo podem ser alteradas.

Para certos fins, podem ser invocados interesses legítimos ao invés de consentimento. Pode ler mais informação sobre este assunto na nossa Política de Privacidade e Cookies.